Regional Weather Roundup
Issued by NWS Green Bay, WI

Home | Current Version | Previous Version | Graphics & Text | Print | Product List | Glossary Off
Versions: 1 2 3 4 5 6 7 8 9 10 11 12 13 14 15 16 17 18 19 20 21 22 23 24 25 26 27 28 29 30 31 32 33 34 35 36 37 38 39 40 41 42 43 44 45 46 47 48 49 50

000
ASUS43 KGRB 301959
RWRGRB

NORTH-CENTRAL AND NORTHEAST WISCONSIN REGIONAL WEATHER ROUNDUP
NATIONAL WEATHER SERVICE GREEN BAY WI
200 PM CST FRI JAN 30 2015

WIZ005-009-010>012-018-019-302100-
NORTH CENTRAL WISCONSIN

CITY           SKY/WX    TMP DP  RH WIND       PRES   REMARKS
IRONWOOD       CLOUDY    18   3  53 W7        30.32F WCI   8
MANITOWISH WTR NOT AVBL
ARBOR VITAE    NOT AVBL
EAGLE RIVER    NOT AVBL
LAND O LAKES   NOT AVBL
RHINELANDER    PTSUNNY   16   3  56 VRB7      30.34F WCI   6
PHILLIPS       NOT AVBL
ANTIGO         NOT AVBL
TOMAHAWK       NOT AVBL
MERRILL        NOT AVBL
$$

WIZ013-073-302100-
NORTHEAST WISCONSIN

CITY           SKY/WX    TMP DP  RH WIND       PRES   REMARKS
IRON MOUNTAIN  CLOUDY    17   3  54 W6        30.35F WCI   9
MARINETTE      MOSUNNY   18   3  53 S8        30.43F WCI   7
$$

WIZ017-030-035>037-045-302100-
CENTRAL WISCONSIN

CITY           SKY/WX    TMP DP  RH WIND       PRES   REMARKS
MEDFORD        NOT AVBL
WAUSAU           N/A     18   4  54 W9        30.38F WCI   7
MOSINEE        NOT AVBL
MARSHFIELD     MOSUNNY   17   6  62 W6        30.39F WCI   9
WISC RAPIDS    PTSUNNY   20   4  50 SW8       30.42F
STEVENS POINT  NOT AVBL
WAUPACA        NOT AVBL
SHAWANO        NOT AVBL
CLINTONVILLE   NOT AVBL
$$

WIZ038-039-048-051-302100-
FOX VALLEY

CITY           SKY/WX    TMP DP  RH WIND       PRES   REMARKS
NWS GREEN BAY  MOSUNNY   20   8  60 SW8       30.45F
APPLETON       PTSUNNY   21   7  53 SW6       30.43F
OSHKOSH        MOSUNNY   22   9  57 S5        30.44F
FOND DU LAC    MOSUNNY   21   7  54 SW5       30.44F
$$

WIZ022-050-052-302100-
EAST CENTRAL WISCONSIN

CITY           SKY/WX    TMP DP  RH WIND       PRES   REMARKS
STURGEON BAY   MOSUNNY   18   3  53 W3        30.46F
MANITOWOC      NOT AVBL
SHEBOYGAN      MOSUNNY   23   9  55 SW6       30.44F
$$

LMZ563-521-522-541>543-302100-
LAKESHORE

STATION/POSITION TIME  TEMP    WIND        PRES    VSBY  WAVE
                       AIR SEA DIR/SP/G                  HT/PER
                 (UTC) (F)     (DEG/KT/KT) (MB)    (MI)  (FT/S)
SHEBOYGAN LKSHOR 1900   19      60/  3/  4 1033.5F
KEWAUNEE LKSHORE 1900   20     290/  2/  6 1030.5F
TWO RIVERS CG    1900   20                 1031.7   3 1/2
NORTHPORT PIER   1900   17     300/  5/  9 1031.2F
SISTER BAY LKSHO 1900   29        CALM       N/A
STURGEON BAY CG  1900   19     310/  7     1036.1      6   1
CHAMBERS ISLAND  1900   17      80/  2/  4 1030.8F
MENOMINEE LKSHOR 1900   15     140/  8     1031.3F
$$



USA.gov is the U.S. government's official web portal to all federal, state and local government web resources and services.